Weather History for Baltimore, MD

Change the Weather History Date:

Friday, January 25, 2013

  Actual Average Record
Temperature  
Mean Temperature 17 °F 33 °F  
Max Temperature 22 °F 42 °F 75 °F (1967)
Min Temperature 11 °F 24 °F 0 °F (1897)
Degree Days  
Heating Degree Days 48 32  
Month to date heating degree days 721 800  
Since 1 July heating degree days 2318 2581  
Cooling Degree Days 0 0  
Month to date cooling degree days 0 0  
Year to date cooling degree days 0 0  
Moisture  
Dew Point 9 °F    
Average Humidity 67    
Maximum Humidity 92    
Minimum Humidity 41    
Precipitation  
Precipitation 0.07 in 0.10 in 1.83 in (1978)
Month to date precipitation 1.52 2.46  
Year to date precipitation 1.52 2.46  
Snow  
Snow 0.90 in 0.20 in 14.90 in (2000)
Month to date snowfall 2.9 5.1  
Since 1 July snowfall 4.3 8.5  
Snow Depth 2.00 in    
Sea Level Pressure  
Sea Level Pressure 30.27 in    
Wind  
Wind Speed 3 mph (SSE)    
Max Wind Speed 9 mph    
Max Gust Speed 13 mph    
Visibility 7 miles    
Events Fog , Snow    
T = Trace of Precipitation, MM = Missing Value Source: NWS Daily Summary

Daily Weather History Graph

Daily Weather History Graph

Search for Another Location

Airport:

Trip Planner

Search our weather history database for the weather conditions in past years. The results will help you decide how hot, cold, wet, or windy it might be!

Date:

Astronomy

Jan. 25, 2013 Rise Set
Actual Time 7:18 AM EST 5:19 PM EST
Civil Twilight 6:50 AM EST 5:48 PM EST
Nautical Twilight 6:17 AM EST 6:20 PM EST
Astronomical Twilight 5:46 AM EST 6:52 PM EST
Moon 4:14 PM EST (1/25) 5:57 AM EST (1/25)
Length of Visible Light 10h 58m
Length of Day
10h 00m
Waxing Gibbous, 98% of the Moon is Illuminated
Jan 25
Waxing Gibbous
Jan 26
Full
Feb 3
Last Quarter
Feb 10
New
Feb 17
First Quarter

Hourly Weather History & Observations

Time (EST) Temp. Windchill Dew Point Humidity Pressure Visibility Wind Dir Wind Speed Gust Speed Precip Events Conditions
12:54 AM 14.0 °F 8.2 °F 1.9 °F 59% 30.51 in 10.0 mi West 3.5 mph - N/A   Mostly Cloudy
1:54 AM 14.0 °F - 1.9 °F 59% 30.50 in 10.0 mi Calm Calm - N/A   Mostly Cloudy
2:54 AM 14.0 °F - -0.0 °F 54% 30.51 in 10.0 mi Calm Calm - N/A   Mostly Cloudy
3:54 AM 14.0 °F 6.5 °F 1.9 °F 59% 30.49 in 10.0 mi NNW 4.6 mph - N/A   Mostly Cloudy
4:54 AM 14.0 °F - 5.0 °F 67% 30.48 in 10.0 mi Calm Calm - N/A   Overcast
5:54 AM 15.1 °F - 3.9 °F 61% 30.47 in 10.0 mi Calm Calm - N/A   Overcast
6:54 AM 16.0 °F - 6.1 °F 65% 30.47 in 10.0 mi Calm Calm - N/A   Overcast
7:54 AM 17.1 °F - 7.0 °F 65% 30.47 in 10.0 mi Calm Calm - N/A   Mostly Cloudy
8:54 AM 19.0 °F - 3.0 °F 50% 30.45 in 10.0 mi Calm Calm - N/A   Overcast
9:54 AM 19.0 °F 13.9 °F -0.0 °F 43% 30.42 in 10.0 mi ESE 3.5 mph - N/A   Overcast
10:54 AM 19.9 °F 13.4 °F 1.9 °F 46% 30.41 in 10.0 mi SW 4.6 mph - N/A   Overcast
11:54 AM 19.9 °F 14.9 °F -0.0 °F 42% 30.36 in 10.0 mi SE 3.5 mph - N/A   Overcast
12:54 PM 21.0 °F 14.6 °F 1.0 °F 42% 30.30 in 10.0 mi SE 4.6 mph - N/A   Overcast
1:54 PM 21.9 °F 13.4 °F 1.0 °F 40% 30.24 in 10.0 mi SSE 6.9 mph - N/A   Overcast
2:23 PM 21.2 °F 11.7 °F 1.4 °F 42% 30.21 in 10.0 mi SSE 8.1 mph - 0.00 in Snow Light Snow
2:48 PM 21.2 °F 11.7 °F 6.8 °F 54% 30.20 in 2.5 mi South 8.1 mph - 0.00 in Snow Light Snow
2:54 PM 21.0 °F 11.4 °F 8.1 °F 57% 30.21 in 1.5 mi South 8.1 mph - 0.00 in Snow Light Snow
3:22 PM 19.4 °F 12.8 °F 14.0 °F 80% 30.20 in 0.5 mi SSW 4.6 mph - 0.01 in Snow Snow
3:54 PM 19.0 °F 12.3 °F 15.1 °F 85% 30.19 in 0.8 mi SSE 4.6 mph - 0.02 in Snow Light Snow
4:04 PM 19.4 °F 14.3 °F 15.8 °F 86% 30.19 in 0.5 mi SSE 3.5 mph - 0.01 in Fog , Snow Snow
4:54 PM 19.0 °F 12.3 °F 16.0 °F 88% 30.17 in 0.8 mi SE 4.6 mph - 0.04 in Snow Light Snow
5:05 PM 19.4 °F - 15.8 °F 86% 30.16 in 0.8 mi Calm Calm - 0.00 in Snow Light Snow
5:17 PM 19.4 °F 14.3 °F 15.8 °F 86% 30.16 in 1.0 mi SE 3.5 mph - 0.01 in Snow Light Snow
5:41 PM 19.4 °F 14.3 °F 15.8 °F 86% 30.14 in 2.5 mi ESE 3.5 mph - 0.01 in Snow Light Snow
5:54 PM 19.0 °F 13.9 °F 16.0 °F 88% 30.14 in 3.0 mi SE 3.5 mph - 0.01 in Snow Light Snow
6:05 PM 17.6 °F - 15.8 °F 93% 30.13 in 6.0 mi Calm Calm - 0.00 in Snow Light Snow
6:54 PM 16.0 °F - 14.0 °F 92% 30.14 in 9.0 mi Calm Calm - 0.00 in   Mostly Cloudy
7:54 PM 17.1 °F - 15.1 °F 92% 30.12 in 9.0 mi Calm Calm - N/A   Overcast
8:20 PM 17.6 °F - 15.8 °F 93% 30.10 in 9.0 mi Calm Calm - N/A   Overcast
8:54 PM 19.0 °F - 16.0 °F 88% 30.10 in 10.0 mi Calm Calm - N/A   Overcast
9:54 PM 19.0 °F - 16.0 °F 88% 30.09 in 9.0 mi Calm Calm - N/A   Overcast
10:54 PM 19.9 °F 14.9 °F 17.1 °F 89% 30.08 in 10.0 mi West 3.5 mph - N/A   Overcast
11:54 PM 19.9 °F 13.4 °F 17.1 °F 89% 30.09 in 10.0 mi West 4.6 mph - N/A   Overcast